| time (UTC) | temp F | wind direction | speed MPH | gust MPH | rain 1hr in | rain 24hr in | rain mn in | humidity % | barometer mb |
| 20260506011835 | 61 | 337 | 0.0 | 0.0 | 0.00 | 0.02 | 0.02 | 86 | 1035.0 |
| 20260506011331 | 61 | 355 | 0.0 | 0.0 | 0.00 | 0.02 | 0.02 | 89 | 1035.0 |
| 20260506010829 | 61 | 335 | 0.0 | 0.0 | 0.00 | 0.02 | 0.02 | 88 | 1034.9 |
| 20260506010327 | 61 | 330 | 0.0 | 1.0 | 0.00 | 0.02 | 0.02 | 89 | 1034.9 |
| 20260506005823 | 61 | 325 | 0.0 | 0.0 | 0.00 | 0.02 | 0.02 | 90 | 1035.2 |
| 20260506005320 | 61 | 175 | 0.0 | 1.0 | 0.00 | 0.02 | 0.02 | 89 | 1035.1 |
| 20260506004816 | 61 | 319 | 0.0 | 0.0 | 0.00 | 0.02 | 0.02 | 89 | 1034.7 |
| 20260506004314 | 61 | 340 | 0.0 | 0.0 | 0.00 | 0.02 | 0.02 | 89 | 1034.9 |
| 20260506003809 | 61 | 319 | 0.0 | 0.0 | 0.00 | 0.02 | 0.02 | 90 | 1034.8 |
| 20260506003306 | 61 | 338 | 0.0 | 0.0 | 0.00 | 0.02 | 0.02 | 90 | 1034.7 |
| 20260506002802 | 62 | 327 | 0.0 | 0.0 | 0.00 | 0.02 | 0.02 | 89 | 1035.0 |
| 20260506002259 | 62 | 314 | 0.0 | 1.0 | 0.00 | 0.02 | 0.02 | 88 | 1034.8 |
| 20260506001754 | 63 | 328 | 0.0 | 0.0 | 0.00 | 0.02 | 0.02 | 85 | 1034.8 |
| 20260506001252 | 63 | 332 | 0.0 | 0.0 | 0.00 | 0.02 | 0.02 | 83 | 1034.6 |
| 20260506000749 | 63 | 350 | 0.0 | 1.0 | 0.00 | 0.02 | 0.02 | 83 | 1034.7 |
| 20260506000247 | 63 | 328 | 0.0 | 0.0 | 0.00 | 0.02 | 0.02 | 83 | 1034.6 |
| 20260505235743 | 63 | 337 | 0.0 | 0.0 | 0.00 | 0.02 | 0.02 | 82 | 1034.9 |
| 20260505235241 | 62 | 332 | 0.0 | 0.0 | 0.00 | 0.02 | 0.02 | 84 | 1034.7 |
| 20260505234738 | 62 | 326 | 0.0 | 0.0 | 0.00 | 0.02 | 0.02 | 85 | 1034.7 |
| 20260505234235 | 62 | 340 | 0.0 | 0.0 | 0.00 | 0.02 | 0.02 | 87 | 1034.9 |
| 20260505233731 | 62 | 320 | 0.0 | 0.0 | 0.00 | 0.02 | 0.02 | 87 | 1034.7 |
| 20260505233230 | 63 | 317 | 0.0 | 0.0 | 0.00 | 0.02 | 0.02 | 87 | 1034.9 |
| 20260505232726 | 63 | 322 | 0.0 | 0.0 | 0.00 | 0.02 | 0.02 | 85 | 1034.6 |
| 20260505232224 | 63 | 347 | 0.0 | 1.0 | 0.00 | 0.02 | 0.02 | 83 | 1034.2 |
| 20260505231721 | 63 | 324 | 0.0 | 0.0 | 0.00 | 0.02 | 0.02 | 84 | 1034.2 |
| 20260505231220 | 63 | 349 | 0.0 | 0.0 | 0.00 | 0.02 | 0.02 | 83 | 1034.1 |
| 20260505230717 | 64 | 324 | 0.0 | 0.0 | 0.00 | 0.02 | 0.02 | 81 | 1034.1 |
| 20260505230214 | 64 | 1 | 1.0 | 1.0 | 0.00 | 0.02 | 0.02 | 83 | 1034.2 |
| 20260505225710 | 64 | 344 | 0.0 | 0.0 | 0.00 | 0.02 | 0.02 | 83 | 1034.0 |
| 20260505225207 | 64 | 337 | 0.0 | 0.0 | 0.00 | 0.02 | 0.02 | 81 | 1034.4 |
| 20260505224702 | 64 | 357 | 0.0 | 0.0 | 0.00 | 0.02 | 0.02 | 81 | 1034.3 |
| 20260505224201 | 64 | 334 | 0.0 | 0.0 | 0.00 | 0.02 | 0.02 | 81 | 1034.2 |
| 20260505223658 | 64 | 356 | 1.0 | 1.0 | 0.00 | 0.02 | 0.02 | 82 | 1034.0 |
| 20260505223154 | 63 | 353 | 0.0 | 1.0 | 0.00 | 0.02 | 0.02 | 84 | 1033.8 |
| 20260505222650 | 64 | 327 | 0.0 | 0.0 | 0.00 | 0.02 | 0.02 | 82 | 1034.4 |
| 20260505222146 | 64 | 335 | 0.0 | 0.0 | 0.00 | 0.02 | 0.02 | 83 | 1033.9 |
| 20260505221643 | 64 | 336 | 0.0 | 0.0 | 0.00 | 0.02 | 0.02 | 81 | 1034.1 |
| 20260505221140 | 65 | 338 | 0.0 | 0.0 | 0.00 | 0.02 | 0.02 | 81 | 1033.7 |
| 20260505220637 | 64 | 322 | 0.0 | 0.0 | 0.00 | 0.02 | 0.02 | 78 | 1033.6 |
| 20260505220135 | 63 | 319 | 0.0 | 0.0 | 0.00 | 0.02 | 0.02 | 88 | 1033.8 |
| 20260505215632 | 63 | 329 | 0.0 | 0.0 | 0.00 | 0.02 | 0.02 | 89 | 1033.7 |
| 20260505215130 | 62 | 325 | 0.0 | 0.0 | 0.00 | 0.02 | 0.02 | 89 | 1033.2 |
| 20260505214628 | 62 | 325 | 0.0 | 0.0 | 0.00 | 0.02 | 0.02 | 89 | 1033.4 |
| 20260505214125 | 62 | 339 | 0.0 | 0.0 | 0.00 | 0.02 | 0.02 | 87 | 1033.1 |
| 20260505213623 | 62 | 342 | 0.0 | 0.0 | 0.00 | 0.02 | 0.02 | 88 | 1033.4 |
| 20260505213119 | 61 | 330 | 0.0 | 0.0 | 0.00 | 0.02 | 0.02 | 85 | 1033.4 |
| 20260505212615 | 62 | 12 | 2.0 | 2.0 | 0.05 | 0.02 | 0.02 | 90 | 1033.3 |
| 20260505212113 | 62 | 323 | 2.0 | 3.0 | 0.05 | 0.02 | 0.02 | 89 | 1033.6 |
| 20260505211609 | 62 | 318 | 1.0 | 1.0 | 0.00 | 0.01 | 0.01 | 89 | 1034.1 |
| 20260505211107 | 62 | 306 | 1.0 | 1.0 | 0.00 | 0.01 | 0.01 | 85 | 1034.3 |
| 20260505210603 | 62 | 315 | 0.0 | 1.0 | 0.07 | 0.01 | 0.01 | 86 | 1034.1 |
| 20260505210100 | 62 | 323 | 2.0 | 3.0 | 0.07 | 0.01 | 0.01 | 87 | 1034.1 |
| 20260505205558 | 63 | 346 | 1.0 | 2.0 | 0.00 | 0.00 | 0.00 | 85 | 1033.6 |
| 20260505205055 | 67 | 287 | 1.0 | 2.0 | 0.00 | 0.00 | 0.00 | 75 | 1033.6 |
| 20260505204552 | 70 | 279 | 6.0 | 8.0 | 0.00 | 0.00 | 0.00 | 61 | 1033.1 |
| 20260505204050 | 78 | 329 | 9.0 | 16.0 | 0.00 | 0.00 | 0.00 | 44 | 1032.3 |
| 20260505203546 | 78 | 284 | 1.0 | 2.0 | 0.00 | 0.00 | 0.00 | 35 | 1030.8 |
| 20260505203043 | 78 | 113 | 2.0 | 2.0 | 0.00 | 0.00 | 0.00 | 35 | 1030.6 |
| 20260505202539 | 79 | 339 | 1.0 | 2.0 | 0.00 | 0.00 | 0.00 | 35 | 1030.5 |
| 20260505202035 | 79 | 311 | 1.0 | 2.0 | 0.00 | 0.00 | 0.00 | 35 | 1030.6 |
| 20260505201532 | 79 | 327 | 1.0 | 1.0 | 0.00 | 0.00 | 0.00 | 33 | 1030.5 |
| 20260505201030 | 80 | 309 | 2.0 | 2.0 | 0.00 | 0.00 | 0.00 | 34 | 1030.5 |
| 20260505200528 | 80 | 189 | 4.0 | 7.0 | 0.00 | 0.00 | 0.00 | 32 | 1030.4 |
| 20260505200025 | 80 | 116 | 2.0 | 2.0 | 0.00 | 0.00 | 0.00 | 32 | 1030.3 |
| 20260505195520 | 80 | 147 | 3.0 | 6.0 | 0.00 | 0.00 | 0.00 | 32 | 1030.3 |
| 20260505195018 | 81 | 213 | 1.0 | 2.0 | 0.00 | 0.00 | 0.00 | 32 | 1030.4 |
| 20260505194515 | 81 | 194 | 3.0 | 3.0 | 0.00 | 0.00 | 0.00 | 32 | 1030.5 |
| 20260505194010 | 81 | 218 | 2.0 | 3.0 | 0.00 | 0.00 | 0.00 | 33 | 1030.6 |
| 20260505193508 | 81 | 135 | 3.0 | 5.0 | 0.00 | 0.00 | 0.00 | 32 | 1030.5 |
| 20260505193005 | 82 | 279 | 2.0 | 2.0 | 0.00 | 0.00 | 0.00 | 32 | 1030.6 |
| 20260505192503 | 83 | 289 | 4.0 | 7.0 | 0.00 | 0.00 | 0.00 | 32 | 1030.4 |
| 20260505192001 | 82 | 205 | 4.0 | 5.0 | 0.00 | 0.00 | 0.00 | 32 | 1030.7 |
| 20260505191459 | 81 | 19 | 3.0 | 5.0 | 0.00 | 0.00 | 0.00 | 32 | 1030.7 |
| 20260505190956 | 82 | 265 | 4.0 | 6.0 | 0.00 | 0.00 | 0.00 | 32 | 1030.9 |
| 20260505190451 | 81 | 317 | 1.0 | 1.0 | 0.00 | 0.00 | 0.00 | 33 | 1030.8 |
| 20260505185946 | 81 | 319 | 3.0 | 5.0 | 0.00 | 0.00 | 0.00 | 33 | 1030.9 |
| 20260505185444 | 82 | 62 | 1.0 | 2.0 | 0.00 | 0.00 | 0.00 | 32 | 1030.9 |
| 20260505184940 | 83 | 267 | 3.0 | 3.0 | 0.00 | 0.00 | 0.00 | 33 | 1031.1 |
| 20260505184437 | 82 | 18 | 3.0 | 6.0 | 0.00 | 0.00 | 0.00 | 31 | 1030.9 |
| 20260505183933 | 82 | 179 | 3.0 | 5.0 | 0.00 | 0.00 | 0.00 | 32 | 1031.2 |
| 20260505183431 | 81 | 38 | 3.0 | 3.0 | 0.00 | 0.00 | 0.00 | 32 | 1031.2 |
| 20260505182927 | 81 | 267 | 4.0 | 5.0 | 0.00 | 0.00 | 0.00 | 32 | 1031.2 |
| 20260505182424 | 80 | 311 | 1.0 | 1.0 | 0.00 | 0.00 | 0.00 | 34 | 1031.1 |
| 20260505181920 | 81 | 0 | 5.0 | 8.0 | 0.00 | 0.00 | 0.00 | 33 | 1031.2 |
| 20260505181418 | 82 | 47 | 3.0 | 6.0 | 0.00 | 0.00 | 0.00 | 32 | 1031.7 |
| 20260505180915 | 81 | 261 | 5.0 | 9.0 | 0.00 | 0.00 | 0.00 | 32 | 1031.7 |
| 20260505180411 | 82 | 60 | 4.0 | 6.0 | 0.00 | 0.00 | 0.00 | 32 | 1031.8 |
| 20260505175908 | 82 | 278 | 3.0 | 6.0 | 0.00 | 0.00 | 0.00 | 35 | 1031.7 |
| 20260505175404 | 82 | 289 | 7.0 | 11.0 | 0.00 | 0.00 | 0.00 | 33 | 1031.9 |
| 20260505174900 | 81 | 319 | 2.0 | 2.0 | 0.00 | 0.00 | 0.00 | 33 | 1032.1 |
| 20260505174358 | 81 | 164 | 2.0 | 3.0 | 0.00 | 0.00 | 0.00 | 33 | 1032.1 |
| 20260505173854 | 80 | 273 | 5.0 | 7.0 | 0.00 | 0.00 | 0.00 | 34 | 1032.1 |
| 20260505173351 | 80 | 277 | 5.0 | 5.0 | 0.00 | 0.00 | 0.00 | 34 | 1032.1 |
| 20260505172848 | 80 | 51 | 4.0 | 6.0 | 0.00 | 0.00 | 0.00 | 34 | 1032.3 |
| 20260505172346 | 80 | 313 | 2.0 | 3.0 | 0.00 | 0.00 | 0.00 | 35 | 1032.3 |
| 20260505171845 | 80 | 156 | 5.0 | 7.0 | 0.00 | 0.00 | 0.00 | 35 | 1032.1 |
| 20260505171342 | 79 | 55 | 2.0 | 3.0 | 0.00 | 0.00 | 0.00 | 40 | 1032.0 |
| 20260505170838 | 80 | 280 | 2.0 | 2.0 | 0.00 | 0.00 | 0.00 | 39 | 1032.1 |
| 20260505170335 | 79 | 78 | 2.0 | 3.0 | 0.00 | 0.00 | 0.00 | 39 | 1032.0 |
| 20260505165831 | 79 | 286 | 2.0 | 2.0 | 0.00 | 0.00 | 0.00 | 39 | 1032.2 |
| 20260505165326 | 80 | 65 | 3.0 | 3.0 | 0.00 | 0.00 | 0.00 | 37 | 1032.3 |
| 20260505164822 | 78 | 273 | 2.0 | 2.0 | 0.00 | 0.00 | 0.00 | 39 | 1032.4 |
| 20260505164320 | 78 | 197 | 4.0 | 6.0 | 0.00 | 0.00 | 0.00 | 40 | 1032.3 |
| 20260505163818 | 78 | 305 | 1.0 | 1.0 | 0.00 | 0.00 | 0.00 | 41 | 1032.9 |
| 20260505163316 | 77 | 179 | 4.0 | 5.0 | 0.00 | 0.00 | 0.00 | 41 | 1032.8 |
| 20260505162814 | 77 | 282 | 3.0 | 3.0 | 0.00 | 0.00 | 0.00 | 43 | 1032.7 |
| 20260505162310 | 77 | 86 | 2.0 | 2.0 | 0.00 | 0.00 | 0.00 | 41 | 1033.0 |
| 20260505161807 | 77 | 132 | 2.0 | 3.0 | 0.00 | 0.00 | 0.00 | 42 | 1032.9 |
| 20260505161304 | 76 | 233 | 3.0 | 3.0 | 0.00 | 0.00 | 0.00 | 43 | 1032.7 |
| 20260505160802 | 76 | 348 | 1.0 | 1.0 | 0.00 | 0.00 | 0.00 | 44 | 1033.0 |
| 20260505160259 | 76 | 0 | 0.0 | 1.0 | 0.00 | 0.00 | 0.00 | 44 | 1032.9 |
| 20260505153238 | 73 | 232 | 2.0 | 3.0 | 0.00 | 0.00 | 0.00 | 47 | 1034.0 |
| 20260505152735 | 72 | 325 | 1.0 | 1.0 | 0.00 | 0.00 | 0.00 | 49 | 1034.1 |
| 20260505152231 | 73 | 86 | 4.0 | 5.0 | 0.00 | 0.00 | 0.00 | 47 | 1034.3 |
| 20260505151726 | 73 | 284 | 4.0 | 6.0 | 0.00 | 0.00 | 0.00 | 48 | 1034.3 |
| 20260505151224 | 72 | 124 | 1.0 | 2.0 | 0.00 | 0.00 | 0.00 | 49 | 1034.4 |
| 20260505150720 | 72 | 132 | 4.0 | 5.0 | 0.00 | 0.00 | 0.00 | 49 | 1034.2 |
| 20260505150217 | 70 | 182 | 1.0 | 2.0 | 0.00 | 0.00 | 0.00 | 51 | 1034.5 |
| 20260505140645 | 68 | 192 | 2.0 | 2.0 | 0.00 | 0.00 | 0.00 | 55 | 1034.6 |
| 20260505140142 | 67 | 321 | 1.0 | 1.0 | 0.00 | 0.00 | 0.00 | 57 | 1034.4 |
| 20260505130106 | 61 | 294 | 2.0 | 2.0 | 0.00 | 0.00 | 0.00 | 60 | 1034.3 |
| 20260505124555 | 60 | 321 | 0.0 | 1.0 | 0.00 | 0.00 | 0.00 | 62 | 1034.3 |
| 20260505124051 | 59 | 335 | 0.0 | 0.0 | 0.00 | 0.00 | 0.00 | 63 | 1034.4 |
| 20260505123548 | 59 | 327 | 0.0 | 0.0 | 0.00 | 0.00 | 0.00 | 63 | 1034.2 |
| 20260505123044 | 59 | 350 | 0.0 | 0.0 | 0.00 | 0.00 | 0.00 | 63 | 1034.5 |
| 20260505122541 | 59 | 322 | 1.0 | 2.0 | 0.00 | 0.00 | 0.00 | 63 | 1034.5 |
| 20260505122038 | 58 | 185 | 1.0 | 2.0 | 0.00 | 0.00 | 0.00 | 63 | 1034.7 |
| 20260505121535 | 58 | 65 | 1.0 | 1.0 | 0.00 | 0.00 | 0.00 | 65 | 1034.9 |
| 20260505121032 | 58 | 314 | 0.0 | 0.0 | 0.00 | 0.00 | 0.00 | 63 | 1034.7 |
| 20260505120528 | 59 | 261 | 1.0 | 1.0 | 0.00 | 0.00 | 0.00 | 63 | 1034.5 |
| 20260505120023 | 58 | 333 | 1.0 | 1.0 | 0.00 | 0.00 | 0.00 | 63 | 1034.5 |
| 20260505115518 | 58 | 307 | 2.0 | 3.0 | 0.00 | 0.00 | 0.00 | 64 | 1034.7 |
| 20260505115016 | 57 | 337 | 0.0 | 0.0 | 0.00 | 0.00 | 0.00 | 67 | 1034.8 |
| 20260505114513 | 57 | 324 | 1.0 | 1.0 | 0.00 | 0.00 | 0.00 | 66 | 1035.0 |
| 20260505114009 | 57 | 327 | 0.0 | 1.0 | 0.00 | 0.00 | 0.00 | 67 | 1035.0 |
| 20260505113506 | 56 | 342 | 1.0 | 1.0 | 0.00 | 0.00 | 0.00 | 67 | 1035.1 |
| 20260505113003 | 55 | 34 | 1.0 | 1.0 | 0.00 | 0.00 | 0.00 | 68 | 1035.1 |
| 20260505112459 | 55 | 348 | 0.0 | 0.0 | 0.00 | 0.00 | 0.00 | 70 | 1035.1 |
| 20260505111956 | 54 | 13 | 1.0 | 1.0 | 0.00 | 0.00 | 0.00 | 71 | 1035.0 |
| 20260505111450 | 53 | 4 | 1.0 | 1.0 | 0.00 | 0.00 | 0.00 | 72 | 1035.1 |
| 20260505110946 | 53 | 343 | 0.0 | 0.0 | 0.00 | 0.00 | 0.00 | 73 | 1035.0 |
| 20260505110444 | 53 | 342 | 0.0 | 0.0 | 0.00 | 0.00 | 0.00 | 73 | 1034.8 |
| 20260505101914 | 53 | 336 | 0.0 | 0.0 | 0.00 | 0.00 | 0.00 | 70 | 1034.5 |
| 20260505101409 | 52 | 333 | 0.0 | 0.0 | 0.00 | 0.00 | 0.00 | 71 | 1034.5 |
| 20260505100905 | 52 | 334 | 0.0 | 0.0 | 0.00 | 0.00 | 0.00 | 72 | 1034.5 |
| 20260505100402 | 52 | 329 | 0.0 | 0.0 | 0.00 | 0.00 | 0.00 | 72 | 1034.5 |
| 20260505095857 | 52 | 335 | 0.0 | 0.0 | 0.00 | 0.00 | 0.00 | 71 | 1034.5 |
| 20260505095355 | 53 | 329 | 0.0 | 0.0 | 0.00 | 0.00 | 0.00 | 70 | 1034.4 |
| 20260505094851 | 53 | 327 | 0.0 | 0.0 | 0.00 | 0.00 | 0.00 | 70 | 1034.3 |
| 20260505094348 | 53 | 333 | 0.0 | 0.0 | 0.00 | 0.00 | 0.00 | 70 | 1034.4 |
| 20260505093844 | 53 | 332 | 0.0 | 0.0 | 0.00 | 0.00 | 0.00 | 69 | 1034.4 |
| 20260505093341 | 53 | 332 | 0.0 | 0.0 | 0.00 | 0.00 | 0.00 | 69 | 1034.6 |
| 20260505092838 | 54 | 332 | 0.0 | 0.0 | 0.00 | 0.00 | 0.00 | 68 | 1034.5 |
| 20260505092337 | 53 | 324 | 0.0 | 0.0 | 0.00 | 0.00 | 0.00 | 69 | 1034.6 |
| 20260505091833 | 53 | 324 | 0.0 | 0.0 | 0.00 | 0.00 | 0.00 | 69 | 1034.7 |
| 20260505091331 | 53 | 339 | 0.0 | 0.0 | 0.00 | 0.00 | 0.00 | 68 | 1034.6 |
| 20260505090829 | 53 | 337 | 0.0 | 0.0 | 0.00 | 0.00 | 0.00 | 68 | 1034.9 |
| 20260505090327 | 54 | 359 | 0.0 | 1.0 | 0.00 | 0.00 | 0.00 | 68 | 1034.7 |
| 20260505085824 | 54 | 353 | 0.0 | 0.0 | 0.00 | 0.00 | 0.00 | 68 | 1034.8 |
| 20260505085322 | 53 | 3 | 0.0 | 1.0 | 0.00 | 0.00 | 0.00 | 67 | 1034.8 |
| 20260505084819 | 53 | 323 | 0.0 | 1.0 | 0.00 | 0.00 | 0.00 | 67 | 1034.7 |
| 20260505084318 | 53 | 331 | 0.0 | 0.0 | 0.00 | 0.00 | 0.00 | 68 | 1034.9 |
| 20260505083814 | 54 | 332 | 0.0 | 0.0 | 0.00 | 0.00 | 0.00 | 67 | 1035.0 |
| 20260505083312 | 54 | 330 | 0.0 | 0.0 | 0.00 | 0.00 | 0.00 | 67 | 1034.6 |
| 20260505082808 | 54 | 342 | 0.0 | 0.0 | 0.00 | 0.00 | 0.00 | 67 | 1034.7 |
| 20260505082305 | 53 | 323 | 0.0 | 0.0 | 0.00 | 0.00 | 0.00 | 67 | 1034.8 |
| 20260505081801 | 53 | 323 | 0.0 | 0.0 | 0.00 | 0.00 | 0.00 | 67 | 1034.8 |
| 20260505081258 | 54 | 323 | 0.0 | 0.0 | 0.00 | 0.00 | 0.00 | 67 | 1034.8 |
| 20260505080755 | 54 | 322 | 0.0 | 1.0 | 0.00 | 0.00 | 0.00 | 66 | 1034.9 |
| 20260505080250 | 55 | 351 | 0.0 | 0.0 | 0.00 | 0.00 | 0.00 | 64 | 1034.7 |
| 20260505075746 | 55 | 345 | 0.0 | 0.0 | 0.00 | 0.00 | 0.00 | 64 | 1034.7 |
| 20260505075244 | 55 | 357 | 1.0 | 1.0 | 0.00 | 0.00 | 0.00 | 64 | 1034.9 |
| 20260505074741 | 55 | 334 | 0.0 | 0.0 | 0.00 | 0.00 | 0.00 | 63 | 1034.8 |
| 20260505074239 | 55 | 345 | 0.0 | 0.0 | 0.00 | 0.00 | 0.00 | 64 | 1034.9 |
| 20260505073736 | 55 | 344 | 0.0 | 0.0 | 0.00 | 0.00 | 0.00 | 64 | 1034.9 |
| 20260505073233 | 55 | 345 | 0.0 | 0.0 | 0.00 | 0.00 | 0.00 | 65 | 1034.8 |
| 20260505072730 | 55 | 329 | 0.0 | 0.0 | 0.00 | 0.00 | 0.00 | 65 | 1035.0 |
| 20260505072226 | 55 | 323 | 0.0 | 0.0 | 0.00 | 0.00 | 0.00 | 64 | 1035.1 |
| 20260505071721 | 55 | 328 | 0.0 | 0.0 | 0.00 | 0.00 | 0.00 | 64 | 1035.0 |
| 20260505071219 | 55 | 337 | 0.0 | 0.0 | 0.00 | 0.00 | 0.00 | 64 | 1034.9 |
| 20260505070716 | 55 | 334 | 0.0 | 0.0 | 0.00 | 0.00 | 0.00 | 63 | 1035.1 |
| 20260505070212 | 55 | 337 | 0.0 | 0.0 | 0.00 | 0.00 | 0.00 | 63 | 1035.1 |
| 20260505065708 | 56 | 339 | 0.0 | 0.0 | 0.00 | 0.00 | 0.00 | 63 | 1035.2 |
| 20260505065205 | 55 | 341 | 0.0 | 0.0 | 0.00 | 0.00 | 0.00 | 63 | 1035.0 |
| 20260505064702 | 55 | 2 | 1.0 | 1.0 | 0.00 | 0.00 | 0.00 | 63 | 1035.0 |
| 20260505064200 | 55 | 354 | 1.0 | 1.0 | 0.00 | 0.00 | 0.00 | 64 | 1034.9 |
| 20260505063657 | 55 | 338 | 1.0 | 1.0 | 0.00 | 0.00 | 0.00 | 65 | 1035.1 |
| 20260505063153 | 55 | 313 | 0.0 | 1.0 | 0.00 | 0.00 | 0.00 | 63 | 1035.1 |
| 20260505062649 | 56 | 343 | 0.0 | 0.0 | 0.00 | 0.00 | 0.00 | 63 | 1035.2 |
| 20260505062147 | 56 | 340 | 0.0 | 0.0 | 0.00 | 0.00 | 0.00 | 62 | 1035.1 |
| 20260505061644 | 56 | 348 | 0.0 | 0.0 | 0.00 | 0.00 | 0.00 | 61 | 1035.2 |
| 20260505061143 | 56 | 345 | 0.0 | 1.0 | 0.00 | 0.00 | 0.00 | 62 | 1035.2 |
| 20260505060639 | 56 | 228 | 0.0 | 1.0 | 0.00 | 0.00 | 0.00 | 61 | 1035.2 |
| 20260505060136 | 56 | 352 | 0.0 | 0.0 | 0.00 | 0.00 | 0.00 | 61 | 1035.3 |
| 20260505055631 | 56 | 346 | 0.0 | 0.0 | 0.00 | 0.00 | 0.00 | 62 | 1035.3 |
| 20260505055128 | 56 | 342 | 1.0 | 1.0 | 0.00 | 0.00 | 0.00 | 61 | 1035.3 |
| 20260505054626 | 56 | 349 | 0.0 | 0.0 | 0.00 | 0.00 | 0.00 | 62 | 1035.2 |
| 20260505054124 | 56 | 333 | 0.0 | 0.0 | 0.00 | 0.00 | 0.00 | 61 | 1035.2 |
| 20260505053621 | 57 | 353 | 0.0 | 1.0 | 0.00 | 0.00 | 0.00 | 60 | 1035.1 |
| 20260505053117 | 57 | 132 | 2.0 | 2.0 | 0.00 | 0.00 | 0.00 | 60 | 1035.1 |
| 20260505052614 | 57 | 345 | 0.0 | 1.0 | 0.00 | 0.00 | 0.00 | 60 | 1035.2 |
| 20260505052112 | 57 | 330 | 0.0 | 0.0 | 0.00 | 0.00 | 0.00 | 60 | 1035.0 |
| 20260505051608 | 57 | 339 | 0.0 | 0.0 | 0.00 | 0.00 | 0.00 | 59 | 1035.3 |
| 20260505051107 | 57 | 349 | 0.0 | 1.0 | 0.00 | 0.00 | 0.00 | 59 | 1035.1 |
| 20260505050604 | 57 | 319 | 1.0 | 1.0 | 0.00 | 0.00 | 0.00 | 59 | 1035.1 |
| 20260505041532 | 59 | 337 | 0.0 | 0.0 | 0.00 | 0.00 | 0.00 | 55 | 1035.0 |
| 20260505041029 | 59 | 6 | 1.0 | 1.0 | 0.00 | 0.00 | 0.00 | 54 | 1035.0 |
| 20260505040526 | 59 | 171 | 4.0 | 6.0 | 0.00 | 0.00 | 0.00 | 54 | 1035.0 |
| 20260505040024 | 59 | 333 | 0.0 | 1.0 | 0.00 | 0.00 | 0.00 | 54 | 1034.9 |
| 20260505035520 | 59 | 315 | 1.0 | 1.0 | 0.00 | 0.00 | 0.00 | 53 | 1034.9 |
| 20260505035016 | 59 | 243 | 1.0 | 1.0 | 0.00 | 0.00 | 0.00 | 52 | 1034.7 |
| 20260505034513 | 59 | 329 | 0.0 | 0.0 | 0.00 | 0.00 | 0.00 | 51 | 1034.8 |
| 20260505034010 | 59 | 358 | 1.0 | 1.0 | 0.00 | 0.00 | 0.00 | 50 | 1034.6 |
| 20260505033507 | 60 | 354 | 0.0 | 0.0 | 0.00 | 0.00 | 0.00 | 50 | 1034.6 |
| 20260505033005 | 59 | 184 | 2.0 | 2.0 | 0.00 | 0.00 | 0.00 | 50 | 1034.7 |
| 20260505032502 | 59 | 126 | 2.0 | 3.0 | 0.00 | 0.00 | 0.00 | 51 | 1034.6 |
| 20260505031958 | 58 | 345 | 1.0 | 1.0 | 0.00 | 0.00 | 0.00 | 52 | 1034.7 |
| 20260505031455 | 59 | 327 | 0.0 | 0.0 | 0.00 | 0.00 | 0.00 | 52 | 1034.6 |
| 20260505030952 | 58 | 312 | 1.0 | 1.0 | 0.00 | 0.00 | 0.00 | 52 | 1034.4 |
| 20260505030449 | 58 | 327 | 0.0 | 0.0 | 0.00 | 0.00 | 0.00 | 52 | 1034.5 |
| 20260505025944 | 58 | 353 | 0.0 | 0.0 | 0.00 | 0.00 | 0.00 | 53 | 1034.5 |
| 20260505025441 | 57 | 342 | 0.0 | 0.0 | 0.00 | 0.00 | 0.00 | 54 | 1034.5 |
| 20260505024940 | 57 | 345 | 0.0 | 0.0 | 0.00 | 0.00 | 0.00 | 55 | 1034.3 |
| 20260505024437 | 58 | 346 | 0.0 | 0.0 | 0.00 | 0.00 | 0.00 | 54 | 1034.3 |
| 20260505023934 | 58 | 335 | 0.0 | 0.0 | 0.00 | 0.00 | 0.00 | 54 | 1034.4 |
| 20260505023431 | 58 | 348 | 0.0 | 0.0 | 0.00 | 0.00 | 0.00 | 53 | 1034.5 |
| 20260505022928 | 58 | 348 | 0.0 | 0.0 | 0.00 | 0.00 | 0.00 | 52 | 1034.5 |
| 20260505022426 | 59 | 348 | 0.0 | 0.0 | 0.00 | 0.00 | 0.00 | 52 | 1034.5 |
| 20260505021923 | 59 | 354 | 0.0 | 0.0 | 0.00 | 0.00 | 0.00 | 52 | 1034.6 |
| 20260505021419 | 58 | 349 | 0.0 | 0.0 | 0.00 | 0.00 | 0.00 | 53 | 1034.6 |
| 20260505020915 | 58 | 348 | 0.0 | 0.0 | 0.00 | 0.00 | 0.00 | 53 | 1034.5 |
| 20260505020410 | 59 | 325 | 0.0 | 0.0 | 0.00 | 0.00 | 0.00 | 53 | 1034.6 |
| 20260505015908 | 59 | 326 | 0.0 | 0.0 | 0.00 | 0.00 | 0.00 | 51 | 1034.6 |
| 20260505015405 | 60 | 331 | 0.0 | 0.0 | 0.00 | 0.00 | 0.00 | 50 | 1034.5 |
| 20260505014902 | 60 | 328 | 0.0 | 0.0 | 0.00 | 0.00 | 0.00 | 49 | 1034.6 |
| 20260505014359 | 60 | 342 | 0.0 | 0.0 | 0.00 | 0.00 | 0.00 | 49 | 1034.5 |
| 20260505013855 | 60 | 328 | 0.0 | 1.0 | 0.00 | 0.00 | 0.00 | 49 | 1034.7 |
| 20260505013352 | 60 | 328 | 0.0 | 0.0 | 0.00 | 0.00 | 0.00 | 49 | 1034.3 |
| 20260505012851 | 61 | 328 | 0.0 | 0.0 | 0.00 | 0.00 | 0.00 | 48 | 1034.4 |
| 20260505012349 | 61 | 328 | 0.0 | 0.0 | 0.00 | 0.00 | 0.00 | 47 | 1034.3 |